Weather in Fokino

Russia / Bryansk Oblast     53°27′19″N   34°24′57″E
temp.,
°C
wind,
m/s
gust,
m/s
humid.,
%
clouds,
%
prec.,
mm/h
press.,
hPa
HPBL,
m
28 october, thu
thu2800:00+3sw31194100 0.0 1020294
03:00+5sw51491100 0.0 1018472
06:00+6sw51493100 1.1 1015718
09:00+7wsw51395100 2.4 1015715
12:00+9w5119290 0.0 1016802
15:00+12nw51068100 0.1 1016936
18:00+8nnw410811 0.0 1020430
21:00+6nw3109124 0.0 1022283
29 october, fri
fri2900:00+5nw249396 0.0 102481
03:00+4nnw119362 0.0 102510
06:00+3s1192100 0.0 102710
09:00+5ssw2386100 0.0 1027112
12:00+8sw357797 0.0 1028298
15:00+10sw357735 0.0 1027461
18:00+7sw27940 0.0 1028131
21:00+6sw26965 0.0 1029123
30 october, sat
sat3000:00+6sw26976 0.0 1029120
03:00+6sw38965 0.0 1030165
06:00+5sw28965 0.0 1030161
09:00+6ssw39905 0.0 1031228
12:00+10sw37665 0.0 1031372
15:00+11ssw37635 0.0 1030480
18:00+7s37825 0.0 1030128
21:00+6ssw39875 0.0 1030202
31 october, sun
sun3100:00+5ssw310895 0.0 1030216
03:00+4ssw29915 0.0 1030192
06:00+4ssw28920 0.0 1030168
09:00+4ssw39865 0.0 1030213
12:00+9ssw47665 0.0 1029405
15:00+11ssw38645 0.0 1028581
18:00+7s38830 0.0 1027172
21:00+5s310840 0.0 1027216
1 november, mon
mon100:00+4ssw210860 0.0 1027192
03:00+4ssw24870 0.0 102782
06:00+3s25870 0.0 102678
09:00+4s26810 0.0 1026136
12:00+9s36580 0.0 1024351
15:00+10sse26570 0.0 1022511
18:00+6se26760 0.0 1022104
21:00+5sse39800 0.0 1022173